loading
DOY 203 | 2024-07-21T10:06:56Z

OBJECT D, 60206

Orbit data source: Space-Track

OBJECT D, 60206 is a satellite owned by NASA JSC (US) in LEO that was launched on Thu, 04 Jul 2024 UTC via a Firefly Alpha launch vehicle from the Air Force Western Test Range (AFWTR). Unknown objects in Earth's orbit typically refer to objects detected orbiting the Earth but have not yet been identified or cataloged. These objects could be anything from previously untracked satellites, spent rocket stages, debris from satellite collisions, or even natural meteoroids temporarily captured by Earth's gravity.

Loading next visibility...
Loading greatness...
OBJECT D details
NORAD ID60206
COSPAR ID
2024-125D
Orbit
LEO
Last TLE update4 days ago
Origin
Flag of USNASA JSC (US)
ManufacturerNASA JSC
BusCubesat 6U
MotorUnknown
Mass10 kg wet, ~10 kg dry
Launch date (UTC)
2024-07-04 (2 weeks ago)
Launch vehicle
Firefly Alpha
Launch site
Air Force Western Test Range (AFWTR)
Object typeUnknown
Radar Cross SectionMedium (>0.1 m² and <1 m²)
Predictive object data (real-time)
Latitude36.81675°
Longitude-96.02913°
Altitude498.798 km
Speed7.625 km/s
Apparent Right ascension13h 45m 31s
Apparent Declination0° 12' 08"
Sunlit
Object is in daylight
Predictive observer data (real-time)
Local Sidereal Time23:05:08
Azimuth307.464° NW
Elevation-35.764°
Doppler factor1
Orbital elements
Apogee520.838 km
Perigee484.733 km
Semi-major axis6,880.923 km
Eccentricity0.0026235
Inclination97.3225°
RAAN51.633°
Arg. of periapsis206.9545°
True anomaly153.16883°
Mean anomaly153.0329°
Mean motion3.80253 °/min
BSTAR0.00050821
Period94.67 mins
Definitive object data (Epoch: 2024-07-17T02:47:37.155Z)
Latitude-0.00005°
Longitude74.30265°
Altitude525.026 km
Speed7.592 km/s
True Right ascension03h 26m 31s
True Declination0° 00' 00"
Sunlit
Object was in daylight at TLE epoch
TLE from 4 days ago
0 OBJECT D
1 60206U 24125D   24199.11640226  .00010987  00000-0  50821-3 0  9999
2 60206  97.3225  51.6330 0026235 206.9545 153.0329 15.20005722  1964
Epoch: 2024-07-17T02:47Z
No data available

OBJECT D Visibility forecast

Observer location: 39.9160978°, -105.1181434

OBJECT D is not visible in the next 10 days
Span
Click to sort rows by Start time (UTC) header in descending order
Start Az.
Max El. time (UTC)
Max El. Az.
Max El.
End time (UTC)
End Az.